FW5487 Weather Reports


Display with metric or nautical units.
time (UTC)temp
F
wind
direction
speed
MPH
gust
MPH
rain 1hr
in
rain 24hr
in
rain mn
in
humidity
%
barometer
mb
20260902055204 79 129 7.0 9.0 0.00 0.00 0.00 74 1000.0
20260902054703 80 126 6.0 8.0 0.00 0.00 0.00 74 1000.0
20260902054203 80 122 5.0 6.0 0.00 0.00 0.00 72 1000.0
20260902053703 80 133 5.0 6.0 0.00 0.00 0.00 73 1000.0
20260902053203 80 130 5.0 6.0 0.00 0.00 0.00 72 1000.0
20260902052704 80 127 5.0 6.0 0.00 0.00 0.00 70 1000.0
20260902052204 80 125 5.0 6.0 0.00 0.00 0.00 70 1000.0
20260902051703 81 129 5.0 6.0 0.00 0.00 0.00 70 1000.0
20260902051204 81 133 5.0 5.0 0.00 0.00 0.00 69 1000.0
20260902050704 81 137 5.0 5.0 0.00 0.00 0.00 71 1000.0
20260902050203 81 130 5.0 6.0 0.00 0.00 0.00 71 1000.0
20260902045703 81 125 5.0 6.0 0.00 0.00 0.00 70 1000.0
20260902045204 81 127 5.0 6.0 0.00 0.00 0.00 71 1000.0
20260902044204 83 119 3.0 5.0 0.00 0.00 0.00 68 1000.0
20260902043204 84 128 3.0 6.0 0.00 0.00 0.00 63 1000.0
20260902042703 84 136 3.0 3.0 0.00 0.00 0.00 62 1000.0
20260902042203 84 148 2.0 3.0 0.00 0.00 0.00 63 1000.0
20260902041204 83 144 2.0 2.0 0.00 0.00 0.00 69 1000.0
20260902040704 83 128 2.0 3.0 0.00 0.00 0.00 67 1000.0
20260902040203 84 133 3.0 3.0 0.00 0.00 0.00 67 1000.0
20260902035704 84 145 3.0 5.0 0.00 0.00 0.00 65 1000.0
20260902035204 84 140 3.0 5.0 0.00 0.00 0.00 66 1000.0
20260902034704 84 138 3.0 5.0 0.00 0.00 0.00 65 1000.0
20260902034203 85 138 5.0 5.0 0.00 0.00 0.00 64 1000.0
20260902033703 84 133 5.0 5.0 0.00 0.00 0.00 65 1000.0
20260902032704 84 116 5.0 6.0 0.00 0.00 0.00 68 1000.0
20260902032204 84 139 5.0 6.0 0.00 0.00 0.00 66 1000.0
20260902031203 86 122 5.0 6.0 0.00 0.00 0.00 61 1000.0
20260902030703 86 123 5.0 6.0 0.00 0.00 0.00 59 1000.0
20260902030203 87 130 3.0 5.0 0.00 0.00 0.00 58 1000.0
20260902025704 87 123 3.0 5.0 0.00 0.00 0.00 58 1000.0
20260902025204 87 131 3.0 5.0 0.00 0.00 0.00 57 1000.0
20260902024704 88 118 3.0 5.0 0.00 0.00 0.00 57 1000.0
20260902024203 88 117 3.0 5.0 0.00 0.00 0.00 57 1000.0
20260902023203 88 126 3.0 5.0 0.00 0.00 0.00 56 1000.0
20260902022704 89 117 5.0 6.0 0.00 0.00 0.00 55 1000.0
20260902021203 89 115 5.0 6.0 0.00 0.00 0.00 54 1000.0
20260902020704 89 112 3.0 5.0 0.00 0.00 0.00 53 1000.0
20260902020203 90 114 4.0 6.0 0.00 0.00 0.00 52 1000.0
20260902015704 90 129 5.0 6.0 0.00 0.00 0.00 51 1000.0
20260902014703 90 131 4.0 6.0 0.00 0.00 0.00 50 1000.0
20260902014204 91 97 3.0 5.0 0.00 0.00 0.00 49 1000.0
20260902013704 91 108 3.0 5.0 0.00 0.00 0.00 49 1000.0
20260902013204 92 88 2.0 5.0 0.00 0.00 0.00 48 1000.0
20260902012204 92 89 3.0 6.0 0.00 0.00 0.00 47 1000.0
20260902011704 92 112 2.0 5.0 0.00 0.00 0.00 47 1000.0
20260902011203 93 73 1.0 3.0 0.00 0.00 0.00 46 1000.0
20260902010703 93 78 1.0 5.0 0.00 0.00 0.00 46 1000.0
20260902010203 93 70 2.0 6.0 0.00 0.00 0.00 46 1000.0
20260902005703 93 84 1.0 5.0 0.00 0.00 0.00 45 1000.0
20260902005203 94 91 4.0 7.0 0.00 0.00 0.00 44 1000.0
20260902004704 94 120 1.0 3.0 0.00 0.00 0.00 43 1000.0
20260902004204 95 82 1.0 3.0 0.00 0.00 0.00 42 1000.0
20260902003704 95 89 2.0 3.0 0.00 0.00 0.00 42 1000.0
20260902003203 95 104 2.0 7.0 0.00 0.00 0.00 41 1000.0
20260902002704 95 101 4.0 8.0 0.00 0.00 0.00 41 1000.0
20260902002204 95 70 3.0 10.0 0.00 0.00 0.00 41 1000.0
20260902001703 96 106 4.0 7.0 0.00 0.00 0.00 39 1000.0
20260902001203 96 96 3.0 7.0 0.00 0.00 0.00 38 1000.0
20260902000704 97 90 2.0 5.0 0.00 0.00 0.00 35 1000.0
20260902000204 98 118 3.0 5.0 0.00 0.00 0.00 32 1000.0
20260901235204 98 165 3.0 5.0 0.00 0.00 0.00 31 1000.0
20260901234704 98 134 3.0 5.0 0.00 0.00 0.00 31 1000.0
20260901234203 99 144 3.0 6.0 0.00 0.00 0.00 31 1000.0
20260901233703 98 169 5.0 7.0 0.00 0.00 0.00 30 1000.0
20260901233203 98 133 5.0 6.0 0.00 0.00 0.00 31 1000.0
20260901232703 99 142 5.0 7.0 0.00 0.00 0.00 30 1000.0
20260901232203 99 138 4.0 7.0 0.00 0.00 0.00 30 1000.0
20260901231704 99 153 6.0 9.0 0.00 0.00 0.00 30 1000.0
20260901231204 99 163 5.0 7.0 0.00 0.00 0.00 31 1000.0
20260901230704 99 163 1.0 6.0 0.00 0.00 0.00 30 1000.0
20260901230204 99 122 3.0 5.0 0.00 0.00 0.00 31 1000.0
20260901225203 100 108 4.0 7.0 0.00 0.00 0.00 29 1000.0
20260901224704 101 355 0.0 1.0 0.00 0.00 0.00 29 1000.0
20260901224204 101 341 2.0 3.0 0.00 0.00 0.00 28 1000.0
20260901223704 101 337 1.0 2.0 0.00 0.00 0.00 28 1000.0
20260901223204 101 282 0.0 3.0 0.00 0.00 0.00 28 1000.0
20260901222703 101 282 2.0 5.0 0.00 0.00 0.00 28 1000.0
20260901221703 99 11 1.0 2.0 0.00 0.00 0.00 30 1000.0
20260901221203 99 77 1.0 2.0 0.00 0.00 0.00 30 1000.0
20260901220704 100 98 3.0 7.0 0.00 0.00 0.00 30 1000.0
20260901220204 100 104 5.0 9.0 0.00 0.00 0.00 29 1000.0
20260901215703 100 104 4.0 7.0 0.00 0.00 0.00 29 1000.0
20260901215204 100 59 3.0 9.0 0.00 0.00 0.00 29 1000.0
20260901214704 100 85 3.0 7.0 0.00 0.00 0.00 29 1000.0
20260901214204 100 109 2.0 5.0 0.00 0.00 0.00 30 1000.0
20260901213704 99 180 3.0 7.0 0.00 0.00 0.00 30 1000.0
20260901213204 100 121 6.0 8.0 0.00 0.00 0.00 29 1000.0
20260901212703 100 125 6.0 8.0 0.00 0.00 0.00 28 1000.0
20260901212203 101 276 1.0 6.0 0.00 0.00 0.00 29 1000.0
20260901211204 100 103 2.0 6.0 0.00 0.00 0.00 29 1000.0
20260901210703 100 55 3.0 6.0 0.00 0.00 0.00 29 1000.0
20260901210203 101 81 0.0 2.0 0.00 0.00 0.00 29 1000.0
20260901205704 101 252 1.0 8.0 0.00 0.00 0.00 28 1000.0
20260901205205 101 266 2.0 7.0 0.00 0.00 0.00 28 1000.0
20260901204704 101 261 1.0 5.0 0.00 0.00 0.00 27 1000.0
20260901203704 101 337 3.0 6.0 0.00 0.00 0.00 28 1000.0
20260901203204 101 299 3.0 9.0 0.00 0.00 0.00 28 1000.0
20260901202704 101 289 4.0 9.0 0.00 0.00 0.00 27 1000.0
20260901202204 101 310 2.0 7.0 0.00 0.00 0.00 28 1000.0
20260901201703 100 180 2.0 3.0 0.00 0.00 0.00 29 1000.0
20260901201204 100 193 0.0 5.0 0.00 0.00 0.00 29 1000.0
20260901200703 100 116 2.0 6.0 0.00 0.00 0.00 29 1000.0
20260901200204 100 127 3.0 8.0 0.00 0.00 0.00 30 1000.0
20260901195704 99 150 5.0 8.0 0.00 0.00 0.00 30 1000.0
20260901195203 99 160 5.0 7.0 0.00 0.00 0.00 30 1000.0
20260901194703 99 110 1.0 5.0 0.00 0.00 0.00 31 1000.0
20260901193704 98 205 3.0 6.0 0.00 0.00 0.00 31 1000.0
20260901193204 99 121 3.0 8.0 0.00 0.00 0.00 30 1000.0
20260901192704 100 212 3.0 7.0 0.00 0.00 0.00 29 1000.0
20260901192204 100 275 1.0 5.0 0.00 0.00 0.00 29 1000.0
20260901191704 100 228 3.0 6.0 0.00 0.00 0.00 29 1000.0
20260901191203 100 217 4.0 7.0 0.00 0.00 0.00 30 1000.0
20260901190703 99 296 1.0 5.0 0.00 0.00 0.00 29 1000.0
20260901190204 99 283 4.0 6.0 0.00 0.00 0.00 30 1000.0
20260901185203 99 186 3.0 8.0 0.00 0.00 0.00 29 1000.0
20260901184704 99 346 1.0 6.0 0.00 0.00 0.00 29 1000.0
20260901184204 98 225 5.0 12.0 0.00 0.00 0.00 31 1000.0
20260901183704 98 178 6.0 9.0 0.00 0.00 0.00 30 1000.0
20260901183204 98 291 2.0 7.0 0.00 0.00 0.00 31 1000.0
20260901182203 98 198 3.0 10.0 0.00 0.00 0.00 35 1000.0
20260901181704 98 201 5.0 9.0 0.00 0.00 0.00 34 1000.0
20260901181203 98 291 3.0 7.0 0.00 0.00 0.00 35 1000.0
20260901180704 97 10 2.0 5.0 0.00 0.00 0.00 36 1000.0
20260901180204 97 100 4.0 7.0 0.00 0.00 0.00 36 1000.0
20260901175204 97 190 7.0 9.0 0.00 0.00 0.00 37 1000.0
20260901174704 97 155 3.0 7.0 0.00 0.00 0.00 38 1000.0
20260901174204 97 288 1.0 7.0 0.00 0.00 0.00 38 1000.0
20260901173703 96 73 1.0 8.0 0.00 0.00 0.00 40 1000.0
20260901173203 96 210 2.0 6.0 0.00 0.00 0.00 39 1000.0
20260901172704 96 175 4.0 9.0 0.00 0.00 0.00 40 1000.0
20260901171704 95 219 4.0 7.0 0.00 0.00 0.00 42 1000.0
20260901170704 95 220 5.0 8.0 0.00 0.00 0.00 43 1000.0
20260901170204 94 216 5.0 8.0 0.00 0.00 0.00 43 1000.0
20260901165703 94 183 2.0 7.0 0.00 0.00 0.00 44 1000.0
20260901165204 93 194 5.0 6.0 0.00 0.00 0.00 44 1000.0
20260901164707 93 191 7.0 12.0 0.00 0.00 0.00 44 1000.0
20260901163704 93 207 4.0 8.0 0.00 0.00 0.00 45 1000.0
20260901163203 92 217 5.0 8.0 0.00 0.00 0.00 46 1000.0
20260901162704 93 195 5.0 9.0 0.00 0.00 0.00 46 1000.0
20260901162203 92 207 4.0 12.0 0.00 0.00 0.00 47 1000.0
20260901161704 92 242 4.0 10.0 0.00 0.00 0.00 47 1000.0
20260901161204 91 187 5.0 9.0 0.00 0.00 0.00 48 1000.0
20260901160203 91 206 5.0 9.0 0.00 0.00 0.00 48 1000.0
20260901155704 91 225 5.0 9.0 0.00 0.00 0.00 48 1000.0
20260901155204 91 192 4.0 7.0 0.00 0.00 0.00 49 1000.0
20260901154704 90 202 7.0 10.0 0.00 0.00 0.00 50 1000.0
20260901154204 89 162 8.0 14.0 0.00 0.00 0.00 50 1000.0
20260901153704 89 151 4.0 10.0 0.00 0.00 0.00 51 1000.0
20260901152703 88 203 8.0 12.0 0.00 0.00 0.00 51 1000.0
20260901152204 88 215 8.0 13.0 0.00 0.00 0.00 52 1000.0
20260901151704 87 241 6.0 10.0 0.00 0.00 0.00 53 1000.0
20260901151203 87 201 6.0 9.0 0.00 0.00 0.00 54 1000.0
20260901150703 87 253 4.0 9.0 0.00 0.00 0.00 55 1000.0
20260901150203 86 208 7.0 10.0 0.00 0.00 0.00 55 1000.0
20260901145704 86 198 7.0 10.0 0.00 0.00 0.00 56 1000.0
20260901145204 86 211 5.0 9.0 0.00 0.00 0.00 57 1000.0
20260901144703 85 207 5.0 9.0 0.00 0.00 0.00 57 1000.0
20260901144204 85 191 6.0 10.0 0.00 0.00 0.00 56 1000.0
20260901143704 86 205 4.0 9.0 0.00 0.00 0.00 56 1000.0
20260901142703 85 214 6.0 12.0 0.00 0.00 0.00 56 1000.0
20260901142203 85 174 6.0 10.0 0.00 0.00 0.00 57 1000.0
20260901141703 85 194 5.0 12.0 0.00 0.00 0.00 58 1000.0
20260901140703 84 192 6.0 10.0 0.00 0.00 0.00 59 1000.0
20260901140204 83 197 7.0 12.0 0.00 0.00 0.00 59 1000.0
20260901135704 83 190 8.0 13.0 0.00 0.00 0.00 59 1000.0
20260901135203 83 193 8.0 13.0 0.00 0.00 0.00 60 1000.0
20260901134203 83 199 8.0 12.0 0.00 0.00 0.00 60 1000.0
20260901133704 83 200 6.0 12.0 0.00 0.00 0.00 60 1000.0
20260901133203 83 192 6.0 9.0 0.00 0.00 0.00 61 1000.0
20260901132704 82 167 3.0 7.0 0.00 0.00 0.00 65 1000.0
20260901132204 82 182 3.0 6.0 0.00 0.00 0.00 68 1000.0
20260901131704 82 189 3.0 6.0 0.00 0.00 0.00 67 1000.0
20260901130704 82 208 4.0 7.0 0.00 0.00 0.00 63 1000.0
20260901130204 81 193 4.0 7.0 0.00 0.00 0.00 66 1000.0
20260901125704 80 197 1.0 6.0 0.00 0.00 0.00 70 1000.0
20260901124703 79 197 1.0 2.0 0.00 0.00 0.00 73 1000.0
20260901124204 78 146 2.0 2.0 0.00 0.00 0.00 75 1000.0
20260901123703 78 129 2.0 3.0 0.00 0.00 0.00 77 1000.0
20260901123204 77 139 3.0 5.0 0.00 0.00 0.00 78 1000.0
20260901122704 78 136 4.0 6.0 0.00 0.00 0.00 77 1000.0
20260901122203 77 136 3.0 5.0 0.00 0.00 0.00 77 1000.0
20260901121704 77 149 3.0 7.0 0.00 0.00 0.00 77 1000.0
20260901120704 78 140 3.0 5.0 0.00 0.00 0.00 76 1000.0
20260901115704 79 158 4.0 6.0 0.00 0.00 0.00 70 1000.0
20260901115204 79 174 5.0 7.0 0.00 0.00 0.00 69 1000.0
20260901114703 79 184 4.0 8.0 0.00 0.00 0.00 70 1000.0
20260901114204 79 159 3.0 5.0 0.00 0.00 0.00 70 1000.0
20260901113704 79 169 3.0 6.0 0.00 0.00 0.00 70 1000.0
20260901113204 79 164 5.0 7.0 0.00 0.00 0.00 70 1000.0
20260901112704 79 139 3.0 6.0 0.00 0.00 0.00 72 1000.0
20260901112203 78 183 4.0 7.0 0.00 0.00 0.00 73 1000.0
20260901111704 77 161 4.0 6.0 0.00 0.00 0.00 76 1000.0
20260901110704 77 138 5.0 12.0 0.00 0.00 0.00 77 1000.0
20260901110204 77 131 4.0 6.0 0.00 0.00 0.00 77 1000.0
20260901105203 77 142 3.0 6.0 0.00 0.00 0.00 77 1000.0
20260901104704 77 122 3.0 5.0 0.00 0.00 0.00 77 1000.0
20260901104203 78 139 3.0 5.0 0.00 0.00 0.00 75 1000.0
20260901103704 78 127 4.0 5.0 0.00 0.00 0.00 74 1000.0
20260901103203 78 138 2.0 3.0 0.00 0.00 0.00 71 1000.0
20260901102704 79 129 3.0 3.0 0.00 0.00 0.00 70 1000.0
20260901101704 80 162 2.0 3.0 0.00 0.00 0.00 65 1000.0
20260901101204 80 134 2.0 5.0 0.00 0.00 0.00 62 1000.0
20260901100703 81 141 2.0 3.0 0.00 0.00 0.00 60 1000.0
20260901100204 81 193 2.0 3.0 0.00 0.00 0.00 59 1000.0
20260901095704 82 212 2.0 3.0 0.00 0.00 0.00 59 1000.0
20260901095203 81 151 2.0 5.0 0.00 0.00 0.00 59 1000.0
20260901094204 81 212 3.0 7.0 0.00 0.00 0.00 60 1000.0
20260901093204 81 160 2.0 3.0 0.00 0.00 0.00 60 1000.0
20260901092204 82 178 5.0 8.0 0.00 0.00 0.00 58 1000.0
20260901091704 82 183 5.0 7.0 0.00 0.00 0.00 58 1000.0
20260901091203 82 185 6.0 9.0 0.00 0.00 0.00 57 1000.0
20260901090203 82 196 7.0 9.0 0.00 0.00 0.00 57 1000.0
20260901085704 82 193 6.0 9.0 0.00 0.00 0.00 57 1000.0
20260901085204 82 192 5.0 8.0 0.00 0.00 0.00 57 1000.0
20260901084703 82 199 5.0 8.0 0.00 0.00 0.00 57 1000.0
20260901084204 82 190 5.0 8.0 0.00 0.00 0.00 58 1000.0
20260901083203 82 185 5.0 7.0 0.00 0.00 0.00 56 1000.0
20260901082704 82 170 4.0 7.0 0.00 0.00 0.00 56 1000.0
20260901082204 82 179 5.0 6.0 0.00 0.00 0.00 56 1000.0
20260901081703 83 175 5.0 8.0 0.00 0.00 0.00 55 1000.0
20260901080703 83 187 6.0 8.0 0.00 0.00 0.00 55 1000.0
20260901080203 83 187 5.0 8.0 0.00 0.00 0.00 55 1000.0
20260901075704 83 186 5.0 8.0 0.00 0.00 0.00 54 1000.0
20260901075203 83 181 6.0 8.0 0.00 0.00 0.00 54 1000.0
20260901074704 83 182 6.0 8.0 0.00 0.00 0.00 55 1000.0
20260901074203 83 184 5.0 8.0 0.00 0.00 0.00 55 1000.0
20260901073704 82 183 4.0 6.0 0.00 0.00 0.00 57 1000.0
20260901073204 82 184 4.0 6.0 0.00 0.00 0.00 58 1000.0
20260901072704 82 162 3.0 5.0 0.00 0.00 0.00 59 1000.0
20260901072203 82 174 3.0 5.0 0.00 0.00 0.00 60 1000.0
20260901071704 82 148 4.0 6.0 0.00 0.00 0.00 60 1000.0
20260901071203 82 141 5.0 6.0 0.00 0.00 0.00 60 1000.0
20260901070704 82 141 5.0 6.0 0.00 0.00 0.00 60 1000.0
20260901070204 82 138 5.0 5.0 0.00 0.00 0.00 61 1000.0
20260901064704 84 141 5.0 7.0 0.00 0.00 0.00 54 1000.0
20260901064204 85 176 5.0 7.0 0.00 0.00 0.00 50 1000.0
20260901063704 86 190 6.0 7.0 0.00 0.00 0.00 49 1000.0
20260901063203 86 190 6.0 12.0 0.00 0.00 0.00 49 1000.0
20260901062703 86 197 5.0 10.0 0.00 0.00 0.00 49 1000.0
20260901062204 86 200 5.0 8.0 0.00 0.00 0.00 48 1000.0
20260901061704 86 202 6.0 8.0 0.00 0.00 0.00 48 1000.0
20260901061204 86 190 7.0 9.0 0.00 0.00 0.00 48 1000.0
20260901060703 86 212 5.0 7.0 0.00 0.00 0.00 48 1000.0
20260901060204 87 198 4.0 6.0 0.00 0.00 0.00 48 1000.0
20260901055703 87 205 5.0 7.0 0.00 0.00 0.00 47 1000.0